Location: Augirein
(42.9320°N, 0.9181°E)
Time: 13:11:31
(UTC+00:00)

Cosmos 1437 Rocket - Pass Details

Date: 20 June 2021
Orbit: 500 x 566 km, 81.2° (Epoch: 01 August)

Event Time Altitude Azimuth Distance (km) Brightness Sun altitude
Rises 01:15:07 0° 347° (NNW) 2,670 7.3 -21.3°
Reaches altitude 10° 01:17:18 10° 345° (NNW) 1,765 6.2 -21.2°
Maximum altitude 01:21:08 67° 263° (W) 559 2.6 -20.9°
Enters shadow 01:21:13 67° 252° (WSW) 560 2.6 -20.9°
